Location: Street
(51.1247°N, 2.7429°W)
Time: 09:18:19
(UTC+00:00)

Tiros 1 - Pass Details

Date: 29 November 2020
Orbit: 630 x 663 km, 48.4° (Epoch: 28 January)

Event Time Altitude Azimuth Distance (km) Brightness Sun altitude
Rises 21:57:00 0° 275° (W) 2,976 - -52.1°
Reaches altitude 10° 22:01:07 10° 241° (WSW) 2,051 - -52.6°
Maximum altitude 22:02:26 11° 224° (SW) 1,973 - -52.8°
Drops below altitude 10° 22:03:46 10° 208° (SSW) 2,041 - -52.9°
Sets 22:07:50 0° 173° (S) 2,935 - -53.4°
